Temp
19 18 19 19 18 18 18 18 18 18 18 18 18 18 18 18 18 17 17 16 16 15 14 14 13 13 12 12 12 11 11 11 11 11 11 10 11 11 11 11 11 11 11
20 19 19 19 19 19 18 18 18 18 18 18 18 18 18 18 18 16 16 16 15 15 14 14 13 13 12 12 11 11 11 11 10 10 10 10 10 10 10 10 10 10 11
20 19 19 19 19 19 19 18 18 18 18 18 18 18 18 18 17 17 16 16 15 14 14 14 13 13 12 12 11 11 11 10 10 10 10 10 9 10 10 10 10 10 10
20 20 20 20 19 19 19 19 18 18 18 18 18 18 17 17 17 17 16 15 15 15 14 13 13 13 13 12 12 11 11 10 10 10 10 9 9 9 9 10 10 10 10
20 20 20 20 19 19 19 19 19 18 18 18 18 18 17 17 17 17 16 15 15 15 14 13 13 12 12 12 12 12 11 10 10 10 10 9 9 9 9 9 9 10 10
21 20 20 20 20 19 19 19 19 19 18 18 18 17 17 17 17 16 16 16 15 14 14 14 13 12 12 12 12 12 11 10 10 10 10 9 9 9 9 9 9 10 10
20 20 20 20 19 19 19 18 18 18 18 18 17 16 16 16 16 16 16 15 15 14 14 14 13 13 12 11 11 11 11 10 10 10 10 9 9 9 9 9 10 10 10
21 20 19 20 19 19 19 18 18 17 17 17 16 13 11 13 15 15 15 15 15 14 14 13 13 13 12 12 11 10 10 10 10 10 10 9 9 9 9 9 9 9 9
19 20 20 19 19 19 19 19 18 17 16 16 16 15 9 10 10 14 15 15 15 14 14 14 13 12 12 12 11 11 11 10 9 9 9 9 8 8 8 8 9 9 9
19 19 19 19 19 18 18 18 18 17 16 14 14 16 16 15 10 11 13 13 14 14 14 13 13 12 12 12 11 11 10 9 9 9 9 8 8 8 8 8 8 8 8
19 19 19 18 19 18 18 17 18 15 15 15 14 14 13 13 13 10 9 10 12 13 13 13 13 12 11 11 11 10 10 9 7 8 8 8 8 8 8 8 8 7 7
17 19 19 19 18 18 17 17 17 16 15 15 14 14 14 13 12 10 8 7 9 11 12 12 12 12 11 11 10 10 9 8 7 7 7 7 7 7 7 7 6 6 6
17 16 17 18 18 18 17 17 17 16 15 14 14 13 13 13 13 12 11 9 8 9 9 10 11 11 11 10 9 8 8 7 6 5 6 6 6 6 5 5 5 5 5
14 14 15 16 17 16 16 16 16 16 15 14 13 12 12 11 12 12 11 10 7 6 6 7 8 8 8 9 8 7 7 6 5 4 3 3 4 4 3 4 4 4 4
13 13 13 14 15 15 15 15 15 15 14 14 14 12 12 11 11 11 10 10 10 9 5 4 5 6 6 5 4 5 4 3 3 2 2 2 2 2 2 2 2 3 3
11 12 12 12 12 13 13 13 13 13 13 13 12 12 11 11 10 9 9 8 8 8 6 4 3 3 4 4 3 3 3 2 2 1 1 1 2 1 2 2 2 2 2
9 10 10 10 10 10 11 12 12 12 12 11 11 11 10 10 9 8 7 7 6 6 6 1 2 2 2 2 1 1 1 1 1 -0 1 1 1 2 2 2 1 1 1
8 8 9 9 10 9 9 10 10 10 9 9 9 9 9 9 8 6 5 5 4 5 5 1 1 1 1 1 1 1 -0 -0 -0 0 1 -0 1 1 1 1 1 1 1
7 7 7 7 7 8 8 8 8 8 8 7 6 5 5 4 4 4 4 3 3 3 3 2 -0 -0 -0 -0 -1 -1 -0 0 -0 -0 -1 -0 1 1 1 1 1 1 1
6 5 5 6 6 6 6 5 5 5 4 4 4 4 3 3 2 2 2 2 2 2 1 1 0 -1 -1 -1 -1 -1 -1 -1 -0 -0 -0 -0 -0 -1 -1 -1 -0 -0 -0
3 3 4 4 3 3 2 3 2 2 2 2 2 1 1 1 1 1 1 1 1 1 0 -0 -1 -1 -1 -2 -2 -1 -1 -1 -0 -0 -1 -0 -1 -1 -1 -1 -1 -1 -1
2 2 2 1 1 1 1 2 2 2 1 1 0 0 0 0 0 0 -0 -0 -0 -1 -1 -1 -1 -1 -2 -1 -1 -1 -1 -2 -2 -1 -2 -2 -2 -2 -1 -1 -1 -1 -1
1 1 1 1 1 0 0 1 1 0 -0 -1 -1 -1 -1 -1 -1 -1 -1 -1 -1 -1 -1 -1 -1 -1 -1 -1 -1 -1 -2 -2 -2 -2 -3 -3 -2 -2 -1 -1 -1 -2 -1
-0 -0 -0 -0 -0 -0 -1 -0 0 0 -0 -1 -1 -1 -1 -2 -2 -1 -2 -2 -2 -1 -1 -2 -1 -2 -2 -2 -2 -2 -3 -3 -3 -3 -3 -4 -3 -3 -2 -1 -1 -2 -2
-2 -2 -2 -1 -1 -1 -1 -1 -0 -1 -1 -1 -2 -2 -2 -2 -2 -2 -2 -2 -2 -2 -2 -2 -2 -2 -2 -2 -2 -3 -3 -3 -4 -4 -4 -4 -4 -4 -3 -2 -1 -2 -2
-2 -2 -2 -2 -1 -1 -1 -1 -1 -1 -2 -2 -2 -2 -2 -2 -2 -2 -2 -3 -3 -3 -3 -2 -2 -3 -3 -3 -3 -3 -3 -3 -4 -5 -4 -4 -4 -5 -5 -3 -2 -2 -2
Height
837 838 839 841 842 842 844 846 846 846 847 848 848 847 848 848 847 848 848 848 850 851 852 856 855 855 855 855 856 856 857 858 858 858 858 858 859 860 860 859 859 859 859
834 836 837 838 839 841 841 842 843 845 845 846 846 846 846 848 847 846 847 847 848 849 850 852 854 853 854 854 854 855 856 858 857 857 858 858 858 859 859 860 859 858 859
832 832 834 835 836 838 839 840 841 842 842 844 844 845 846 846 847 846 845 846 846 847 848 849 852 852 852 853 854 854 854 855 856 856 857 858 858 859 859 860 860 859 859
827 829 830 831 833 834 836 838 839 840 839 840 841 843 843 844 845 844 844 844 844 845 846 847 848 849 850 851 852 853 853 853 854 854 855 856 857 857 858 859 859 860 859
823 824 825 827 829 830 831 833 834 835 835 836 837 838 839 840 840 841 840 840 841 841 842 843 845 847 847 849 850 851 852 852 852 853 854 854 855 856 856 856 858 859 859
818 820 820 822 824 825 825 827 828 829 830 832 833 834 836 837 837 837 836 836 836 837 838 840 842 843 844 846 847 849 850 850 850 851 852 853 853 853 854 854 855 856 858
814 815 815 817 818 818 819 821 822 823 824 827 831 832 832 832 832 831 832 832 831 831 833 835 837 838 840 842 843 845 846 847 848 849 849 850 851 851 852 853 853 853 854
810 810 810 810 811 812 813 815 816 817 818 821 825 829 833 830 826 824 826 826 827 828 828 829 831 833 836 837 839 841 842 844 845 846 847 847 848 849 849 850 851 851 850
803 803 805 805 806 807 807 808 809 810 811 814 815 819 830 826 820 816 817 818 821 822 822 823 826 828 830 833 835 838 839 840 842 844 844 844 845 845 846 847 848 849 849
796 797 798 799 799 800 800 801 804 804 806 807 810 810 809 810 816 815 811 811 815 817 818 819 821 823 825 825 829 833 836 838 839 841 842 842 844 844 844 844 845 846 846
792 791 792 792 792 794 794 796 796 798 800 800 802 803 804 806 807 809 811 807 809 810 813 814 815 818 819 820 822 826 830 833 838 838 841 839 841 841 840 841 841 842 841
786 786 785 785 786 788 789 791 792 792 793 794 795 798 799 802 806 807 808 806 805 805 807 809 809 811 813 816 816 818 822 827 833 840 841 838 838 839 838 838 837 837 838
784 782 780 781 782 783 785 787 786 787 787 788 788 790 790 795 797 798 801 803 802 802 803 804 805 808 810 815 820 820 816 821 825 832 838 838 836 836 835 834 833 832 831
782 780 779 776 777 779 780 781 782 783 783 784 784 785 786 788 790 793 795 798 802 802 800 799 800 802 807 806 814 824 821 820 821 821 829 834 831 831 832 831 830 829 826
779 777 776 775 775 775 776 777 778 778 778 777 777 779 780 781 783 785 789 791 792 793 796 794 796 798 797 805 801 812 809 809 811 814 822 828 827 825 827 828 826 823 821
778 776 774 774 775 774 774 773 773 774 774 774 774 776 776 777 779 781 781 785 786 786 788 789 791 791 794 797 805 806 795 806 805 812 817 822 821 821 821 822 820 819 817
777 775 774 773 773 773 774 773 773 772 772 772 772 773 773 774 775 777 777 778 781 783 783 784 787 790 792 796 796 804 801 805 803 809 812 815 815 815 817 817 814 814 811
777 775 774 772 771 772 773 772 773 772 773 772 771 770 771 772 771 773 775 775 777 780 782 783 785 787 792 797 798 797 796 798 803 807 808 810 808 809 811 810 809 809 806
778 776 775 774 773 773 772 773 774 773 773 774 774 774 773 773 775 771 773 773 776 777 779 780 783 788 788 787 793 797 795 796 800 800 802 804 802 803 806 803 803 802 801
778 778 777 775 775 773 773 773 774 774 772 773 773 774 774 774 773 773 774 775 775 777 779 781 780 783 788 789 792 793 793 796 796 797 799 798 798 799 799 797 798 796 796
782 780 778 777 776 776 775 775 775 775 775 776 775 775 775 775 775 776 777 778 777 779 781 782 784 787 790 790 790 790 790 792 794 794 794 793 793 794 792 791 791 790 788
785 783 781 781 780 780 778 778 777 776 777 778 778 778 778 779 779 780 779 781 783 783 784 785 786 788 789 787 788 790 789 790 792 792 791 792 790 785 784 784 785 782 783
789 786 785 784 784 784 783 781 781 780 781 782 782 782 782 782 782 782 782 783 784 785 786 786 787 786 787 787 787 789 788 788 789 790 789 784 782 779 779 779 779 779 779
791 790 788 788 788 788 787 785 784 783 784 784 785 785 785 785 785 784 784 784 785 786 787 787 788 788 787 786 787 787 787 786 787 786 786 781 778 777 776 775 773 772 772
792 792 792 793 791 791 790 788 788 788 789 789 788 787 787 787 787 787 786 786 786 786 786 787 787 786 786 786 786 785 784 785 784 783 782 781 779 775 770 766 766 767 768
794 795 795 795 795 794 794 792 791 791 791 790 790 789 789 788 788 788 787 786 786 786 786 785 785 784 783 783 783 782 782 782 782 781 780 780 776 775 768 763 762 763 762
Wind_Speed
19 23 18 14 14 15 15 14 11 10 12 12 13 11 11 11 10 14 15 14 14 13 11 9 10 11 10 10 10 10 10 9 9 10 10 10 10 10 11 11 11 12 11
19 24 19 18 17 15 14 17 16 14 16 15 15 14 13 12 13 15 16 16 15 15 13 12 12 12 11 10 10 10 10 9 9 9 8 9 9 9 9 9 10 10 10
22 25 23 21 20 20 15 20 21 19 17 17 17 16 15 15 16 15 17 17 17 17 16 14 13 13 13 12 11 10 10 9 8 8 7 7 7 6 7 7 8 8 8
26 23 26 27 26 26 24 21 18 22 21 21 20 18 17 17 18 17 17 18 17 18 18 16 17 16 15 14 13 11 10 10 8 8 7 6 6 5 5 4 4 4 6
27 30 27 25 26 27 30 28 26 23 24 24 22 20 20 20 20 21 20 20 19 19 19 20 20 20 18 16 15 13 12 10 10 7 7 6 5 4 4 3 2 2 2
29 30 33 32 29 28 29 32 32 29 28 27 23 22 21 22 22 23 24 23 22 22 20 21 23 24 22 19 16 15 13 11 10 9 8 7 7 5 4 3 2 1 2
27 31 34 34 34 33 34 34 33 34 31 29 20 19 19 22 25 27 26 27 27 26 24 24 23 26 25 23 19 17 15 13 11 10 10 9 8 7 5 4 3 3 3
30 28 33 38 37 38 35 35 36 33 33 30 16 5 2 10 26 29 29 29 31 29 29 29 27 26 27 27 24 20 17 15 13 12 12 11 9 8 6 5 5 5 5
27 29 32 33 37 38 39 39 38 37 29 33 33 14 2 6 3 19 37 33 33 33 34 32 30 29 27 28 26 24 21 18 14 13 13 12 11 9 7 6 7 7 8
27 25 25 27 35 37 43 40 37 40 36 30 31 38 25 6 4 3 12 32 32 34 36 35 34 32 30 28 27 24 21 19 16 14 13 11 10 8 8 7 8 8 9
26 24 24 26 25 31 36 38 38 32 41 29 30 29 33 20 11 3 4 5 27 34 34 36 37 35 32 29 28 26 22 18 15 13 14 11 10 10 9 9 8 10 10
16 26 28 29 28 22 25 29 30 32 35 40 35 33 26 14 19 6 3 4 7 17 32 34 37 38 35 33 30 26 23 17 14 12 12 10 10 10 10 10 10 11 12
12 12 13 20 23 23 22 24 28 29 32 35 38 38 38 33 25 24 12 3 4 11 10 28 28 35 35 31 29 24 22 21 16 12 11 11 10 12 12 12 13 13 13
7 6 6 4 7 14 18 22 19 23 27 30 34 34 34 34 38 33 23 15 2 4 6 6 19 23 25 25 21 24 18 16 15 14 13 15 13 13 15 15 15 15 14
9 11 10 7 5 10 12 14 15 17 22 25 29 31 33 35 35 33 31 26 20 7 6 9 8 18 23 22 27 27 26 23 22 17 17 19 16 16 17 17 17 15 15
10 10 10 10 9 7 8 9 10 13 16 17 21 22 26 27 24 25 25 25 23 18 5 17 12 19 26 30 32 35 28 27 20 20 17 19 19 17 17 19 18 18 18
9 7 8 8 9 8 9 9 9 9 12 11 11 13 17 17 18 19 19 20 22 22 11 9 18 20 25 26 27 22 18 20 18 21 23 26 20 17 19 19 18 20 19
7 8 6 6 8 8 7 7 8 9 9 10 10 9 12 13 15 14 14 12 14 17 14 6 15 17 20 23 22 21 19 16 20 24 23 16 16 17 18 18 18 19 18
7 8 9 10 9 7 6 6 6 6 7 7 6 5 4 5 8 7 10 10 12 13 12 9 7 13 15 19 17 18 17 19 21 17 15 14 13 13 18 18 18 18 17
9 9 10 11 10 10 8 5 5 4 4 3 3 3 3 3 4 5 6 8 8 7 6 6 5 6 7 9 14 13 11 11 12 11 9 10 13 16 17 15 14 14 16
9 9 11 12 12 11 11 8 7 8 9 9 8 7 8 6 5 2 2 4 4 5 4 5 4 4 7 6 7 4 7 5 9 9 10 16 13 14 16 19 19 17 15
13 15 16 15 17 16 13 11 9 11 11 11 11 11 11 11 10 7 5 2 1 2 2 2 2 2 2 2 5 8 8 4 2 4 2 20 17 19 14 12 13 14 13
13 16 17 18 18 16 14 14 12 14 14 12 11 9 9 8 7 8 7 5 4 2 2 2 2 1 2 1 1 4 5 8 9 14 14 17 18 21 13 16 13 14 14
14 16 17 17 18 15 13 12 12 12 11 10 8 7 7 6 5 5 6 6 3 2 3 5 6 6 4 4 6 8 9 10 13 16 15 8 11 18 15 16 16 12 8
15 15 14 13 15 14 12 13 12 11 10 10 10 9 8 7 6 4 4 4 3 4 3 4 3 5 7 9 9 9 10 10 10 5 12 13 9 14 20 10 2 4 4
14 13 14 15 14 13 11 8 8 8 7 6 6 5 5 6 5 5 5 5 3 1 4 7 10 10 9 10 10 10 11 11 9 5 2 6 6 9 9 6 5 16 17
Wind_Direction
222 213 214 223 223 220 221 226 223 216 216 216 224 215 214 205 217 205 202 202 200 186 173 174 166 162 158 148 142 136 130 127 114 107 105 102 96 90 85 83 78 75 71
223 217 219 224 225 218 222 226 228 224 227 230 226 222 220 214 228 208 204 205 211 208 189 183 181 175 169 161 155 151 143 140 130 118 113 107 103 99 91 86 85 83 77
227 220 221 230 228 217 220 231 228 223 225 234 230 230 228 219 228 226 212 212 215 217 210 192 192 185 181 175 170 165 160 154 146 135 126 118 110 105 99 86 82 78 76
226 229 232 232 233 225 231 230 228 226 230 231 226 232 229 228 224 230 223 219 224 221 217 206 197 195 192 189 185 183 177 170 164 152 146 138 130 119 110 100 82 73 75
229 232 235 234 235 236 233 229 231 232 229 225 224 227 229 229 225 225 229 227 223 226 223 215 205 201 196 196 196 191 189 183 178 175 171 169 158 144 133 124 103 73 44
237 235 234 235 239 239 235 226 228 233 236 231 225 230 237 231 230 225 226 230 225 222 225 222 214 211 208 199 200 196 194 189 189 189 192 191 191 182 176 177 180 211 293
234 240 236 236 234 238 239 231 228 233 233 230 218 229 235 231 232 233 231 226 226 225 223 221 224 222 218 211 203 201 202 202 208 206 201 200 200 203 206 221 226 234 263
249 241 240 238 236 236 236 236 231 229 232 217 200 155 250 251 237 232 230 228 227 226 225 223 222 224 224 221 218 212 212 212 213 209 204 204 204 210 211 230 247 256 260
263 262 251 246 240 241 238 238 237 229 221 214 211 190 146 226 218 230 231 229 228 224 225 228 225 223 226 226 226 228 227 221 215 214 208 203 206 208 221 237 253 265 274
266 263 263 259 253 248 242 239 240 237 220 212 210 216 223 178 193 283 232 230 229 230 226 226 229 227 228 224 225 228 230 227 218 213 211 208 217 228 237 247 261 271 275
267 266 263 260 260 254 255 249 241 238 231 224 213 221 225 224 221 164 243 241 229 231 233 229 229 230 227 227 222 224 227 232 229 217 218 215 228 236 246 256 261 268 273
296 268 266 265 259 261 260 260 261 250 241 234 228 226 224 217 233 215 242 245 231 228 232 231 230 228 227 226 223 220 222 237 219 234 240 235 242 255 260 265 268 274 278
324 336 282 272 268 265 264 268 264 261 251 240 233 232 229 232 232 227 221 196 227 223 228 229 232 231 226 223 223 218 219 218 212 218 245 258 261 268 270 271 272 273 277
1 351 315 312 279 278 279 269 271 281 273 259 245 236 236 236 235 239 236 219 240 238 215 210 216 217 221 202 243 226 219 215 212 217 241 259 258 269 279 273 275 277 279
318 323 330 337 308 269 265 267 275 281 283 276 266 247 239 244 246 244 242 236 231 242 230 211 197 217 217 223 198 216 209 219 236 237 240 255 261 270 274 273 273 276 281
316 317 322 329 320 314 301 285 275 274 283 277 267 258 242 243 246 241 238 242 232 234 230 206 202 187 189 199 217 229 223 238 231 225 230 250 263 268 273 271 275 279 280
3 358 351 356 6 357 333 317 305 292 288 285 276 255 240 243 244 242 243 240 250 238 233 207 211 202 202 217 209 230 229 229 236 235 244 262 267 269 270 272 276 276 277
12 22 20 31 21 16 357 331 313 312 303 293 270 253 243 242 237 241 246 239 239 228 229 178 205 206 210 214 219 218 219 232 242 249 258 263 264 268 272 274 278 276 276
36 39 40 47 50 45 19 5 333 338 332 327 332 326 296 273 265 249 252 243 233 225 227 204 176 206 206 211 217 232 241 250 252 260 262 257 260 269 272 277 278 277 278
48 53 57 54 51 46 43 40 34 39 63 58 50 31 349 302 291 269 234 226 212 199 207 183 133 182 203 211 218 228 242 258 269 256 254 264 277 279 277 277 273 273 277
70 71 71 71 65 58 52 55 70 76 72 71 71 78 63 45 42 68 207 215 199 172 157 154 148 175 189 184 211 236 233 261 261 267 274 284 283 277 274 271 273 278 280
83 82 75 74 69 61 60 61 66 80 86 93 95 88 93 97 87 74 88 113 155 146 170 173 169 200 230 229 246 253 253 220 290 248 239 286 295 291 295 289 285 285 280
91 90 88 81 72 69 69 72 82 92 96 90 85 85 87 85 90 105 98 101 83 35 12 273 248 227 251 266 266 266 262 272 272 291 300 297 304 301 302 297 288 274 275
97 92 88 88 86 75 74 74 79 85 88 84 77 65 51 44 47 53 41 36 32 300 275 256 254 262 275 280 287 292 292 289 289 291 293 283 297 291 302 296 290 272 272
96 92 90 88 83 75 69 68 66 71 76 76 68 51 41 41 31 10 351 341 308 334 288 244 289 302 300 287 277 277 274 283 306 292 299 271 279 309 311 310 174 181 259
98 97 88 84 81 78 62 57 58 64 69 66 56 55 44 27 13 7 335 337 357 290 300 269 271 282 278 281 268 268 276 262 260 288 176 333 303 337 322 292 242 292 308